EN

Hourly Weather Gogolevskiy

Today, 16 May, Sunday

Time Temperature Precipitation Wind Pressure Humidity
00:00 +21°C° 0 mm 1 mps 752 mmHg 72%
01:00 +21°C° 0 mm 1 mps 752 mmHg 74%
02:00 +19°C° 0 mm 2 mps 752 mmHg 75%
03:00 +18°C° 0 mm 2 mps 752 mmHg 75%
04:00 +18°C° 0 mm 2 mps 752 mmHg 72%
05:00 +18°C° 0 mm 2 mps 752 mmHg 70%
06:00 +18°C° 0 mm 3 mps 752 mmHg 68%
07:00 +20°C° 0 mm 3 mps 752 mmHg 61%
08:00 +21°C° 0 mm 4 mps 752 mmHg 53%
09:00 +23°C° 0 mm 5 mps 752 mmHg 46%
10:00 +26°C° 0 mm 5 mps 752 mmHg 41%
11:00 +27°C° 0 mm 5 mps 752 mmHg 37%
12:00 +29°C° 0 mm 5 mps 752 mmHg 33%
13:00 +29°C° 0 mm 5 mps 752 mmHg 32%
14:00 +30°C° 0 mm 5 mps 752 mmHg 31%
15:00 +30°C° 0 mm 6 mps 751 mmHg 30%
16:00 +30°C° 0 mm 5 mps 751 mmHg 36%
17:00 +29°C° 0 mm 4 mps 751 mmHg 42%
18:00 +28°C° 0 mm 3 mps 750 mmHg 48%
19:00 +26°C° 0 mm 3 mps 750 mmHg 49%
20:00 +23°C° 0 mm 4 mps 750 mmHg 51%
21:00 +22°C° 0 mm 4 mps 750 mmHg 52%
22:00 +21°C° 0 mm 5 mps 750 mmHg 51%
23:00 +21°C° 0 mm 5 mps 750 mmHg 50%

Tomorrow, 17 May, Monday

Time Temperature Precipitation Wind Pressure Humidity
00:00 +20°C° 0 mm 5 mps 750 mmHg 49%
01:00 +20°C° 0 mm 5 mps 750 mmHg 47%
02:00 +19°C° 0 mm 5 mps 750 mmHg 46%
03:00 +19°C° 0 mm 5 mps 750 mmHg 44%
04:00 +19°C° 0 mm 5 mps 750 mmHg 47%
05:00 +19°C° 0 mm 6 mps 750 mmHg 51%
06:00 +17°C° 0 mm 6 mps 750 mmHg 54%
07:00 +20°C° 0 mm 6 mps 750 mmHg 50%
08:00 +23°C° 0 mm 7 mps 750 mmHg 47%
09:00 +26°C° 0 mm 7 mps 750 mmHg 43%
10:00 +27°C° 0 mm 7 mps 750 mmHg 41%
11:00 +28°C° 0 mm 7 mps 750 mmHg 40%
12:00 +29°C° 0 mm 7 mps 750 mmHg 38%
13:00 +30°C° 0 mm 7 mps 750 mmHg 37%
14:00 +30°C° 0 mm 7 mps 749 mmHg 36%
15:00 +32°C° 0 mm 6 mps 749 mmHg 35%
16:00 +30°C° 0 mm 5 mps 749 mmHg 39%
17:00 +29°C° 0 mm 4 mps 749 mmHg 44%
18:00 +28°C° 0 mm 3 mps 749 mmHg 48%
19:00 +26°C° 0 mm 3 mps 749 mmHg 49%
20:00 +23°C° 0 mm 4 mps 749 mmHg 50%
21:00 +21°C° 0 mm 4 mps 749 mmHg 52%
22:00 +20°C° 0 mm 4 mps 749 mmHg 50%
23:00 +19°C° 0 mm 4 mps 749 mmHg 49%

Day after tomorrow, 18 May, Tuesday

Time Temperature Precipitation Wind Pressure Humidity
00:00 +19°C° 0 mm 3 mps 749 mmHg 48%
01:00 +18°C° 0 mm 3 mps 749 mmHg 48%
02:00 +17°C° 0 mm 3 mps 749 mmHg 47%
03:00 +17°C° 0 mm 3 mps 749 mmHg 46%
04:00 +17°C° 0 mm 3 mps 749 mmHg 48%
05:00 +17°C° 0 mm 2 mps 749 mmHg 51%
06:00 +18°C° 0 mm 2 mps 749 mmHg 53%
07:00 +19°C° 0 mm 2 mps 749 mmHg 49%
08:00 +21°C° 0 mm 2 mps 749 mmHg 45%
09:00 +24°C° 0 mm 2 mps 749 mmHg 41%
10:00 +25°C° 0 mm 3 mps 748 mmHg 38%
11:00 +27°C° 0 mm 3 mps 748 mmHg 36%
12:00 +28°C° 0 mm 3 mps 748 mmHg 34%
13:00 +28°C° 0 mm 3 mps 748 mmHg 34%
14:00 +28°C° 0 mm 3 mps 748 mmHg 34%
15:00 +29°C° 0 mm 4 mps 748 mmHg 34%
16:00 +28°C° 0 mm 4 mps 748 mmHg 43%
17:00 +26°C° 0 mm 4 mps 748 mmHg 51%
18:00 +25°C° 0 mm 4 mps 748 mmHg 59%
19:00 +22°C° 0 mm 5 mps 748 mmHg 67%
20:00 +20°C° 0 mm 5 mps 749 mmHg 74%
21:00 +17°C° 0 mm 5 mps 749 mmHg 81%
22:00 +18°C° 0 mm 4 mps 749 mmHg 82%
23:00 +17°C° 0 mm 4 mps 749 mmHg 83%

19 May, Wednesday

Time Temperature Precipitation Wind Pressure Humidity
00:00 +17°C° 0 mm 3 mps 749 mmHg 85%
01:00 +16°C° 0 mm 3 mps 749 mmHg 86%
02:00 +16°C° 0 mm 3 mps 749 mmHg 87%
03:00 +14°C° 0 mm 3 mps 749 mmHg 88%
04:00 +14°C° 0 mm 3 mps 750 mmHg 87%
05:00 +16°C° 0 mm 3 mps 750 mmHg 86%
06:00 +16°C° 0 mm 3 mps 750 mmHg 85%
07:00 +17°C° 0 mm 4 mps 750 mmHg 81%
08:00 +17°C° 0 mm 5 mps 750 mmHg 78%
09:00 +19°C° 0 mm 6 mps 750 mmHg 74%
10:00 +19°C° 0.3 mm 6 mps 751 mmHg 69%
11:00 +20°C° 0.3 mm 6 mps 751 mmHg 65%
12:00 +21°C° 0.3 mm 7 mps 751 mmHg 60%
13:00 +21°C° 0.2 mm 7 mps 751 mmHg 59%
14:00 +21°C° 0.2 mm 7 mps 751 mmHg 57%
15:00 +21°C° 0.2 mm 7 mps 751 mmHg 55%
16:00 +20°C° 0.3 mm 7 mps 751 mmHg 59%
17:00 +18°C° 0.3 mm 7 mps 751 mmHg 63%
18:00 +17°C° 0.3 mm 7 mps 751 mmHg 67%
19:00 +16°C° 0 mm 7 mps 752 mmHg 70%
20:00 +15°C° 0 mm 7 mps 752 mmHg 73%
21:00 +14°C° 0 mm 7 mps 752 mmHg 76%
22:00 +14°C° 0 mm 7 mps 752 mmHg 76%
23:00 +14°C° 0 mm 6 mps 753 mmHg 76%

20 May, Thursday

Time Temperature Precipitation Wind Pressure Humidity
00:00 +13°C° 0 mm 6 mps 753 mmHg 76%
01:00 +13°C° 0 mm 6 mps 753 mmHg 77%
02:00 +13°C° 0 mm 6 mps 753 mmHg 78%
03:00 +13°C° 0 mm 6 mps 753 mmHg 80%
04:00 +13°C° 0 mm 6 mps 753 mmHg 80%
05:00 +13°C° 0 mm 5 mps 753 mmHg 81%
06:00 +13°C° 0 mm 5 mps 754 mmHg 82%
07:00 +15°C° 0 mm 5 mps 754 mmHg 74%
08:00 +16°C° 0 mm 6 mps 754 mmHg 67%
09:00 +19°C° 0 mm 6 mps 754 mmHg 59%
10:00 +20°C° 0 mm 6 mps 754 mmHg 55%
11:00 +21°C° 0 mm 6 mps 754 mmHg 52%
12:00 +22°C° 0 mm 6 mps 754 mmHg 48%
13:00 +23°C° 0 mm 5 mps 754 mmHg 46%
14:00 +23°C° 0 mm 5 mps 754 mmHg 44%
15:00 +23°C° 0 mm 4 mps 754 mmHg 41%
16:00 +23°C° 0 mm 4 mps 754 mmHg 44%
17:00 +24°C° 0 mm 3 mps 754 mmHg 47%
18:00 +24°C° 0 mm 3 mps 754 mmHg 49%
19:00 +21°C° 0 mm 3 mps 754 mmHg 54%
20:00 +19°C° 0 mm 3 mps 754 mmHg 58%
21:00 +17°C° 0 mm 3 mps 754 mmHg 63%
22:00 +17°C° 0 mm 3 mps 753 mmHg 63%
23:00 +17°C° 0 mm 4 mps 753 mmHg 62%

21 May, Friday

Time Temperature Precipitation Wind Pressure Humidity
00:00 +15°C° 0 mm 4 mps 752 mmHg 62%
01:00 +15°C° 0 mm 5 mps 752 mmHg 62%
02:00 +16°C° 0 mm 5 mps 752 mmHg 62%
03:00 +16°C° 0 mm 6 mps 752 mmHg 62%
04:00 +16°C° 0 mm 6 mps 752 mmHg 62%
05:00 +16°C° 0 mm 6 mps 752 mmHg 61%
06:00 +17°C° 0 mm 6 mps 752 mmHg 61%
07:00 +20°C° 0 mm 7 mps 752 mmHg 57%
08:00 +21°C° 0 mm 7 mps 752 mmHg 53%
09:00 +23°C° 0 mm 8 mps 752 mmHg 49%
10:00 +24°C° 0.1 mm 8 mps 752 mmHg 49%
11:00 +26°C° 0.1 mm 8 mps 752 mmHg 49%
12:00 +27°C° 0.1 mm 7 mps 752 mmHg 50%
13:00 +28°C° 0 mm 7 mps 752 mmHg 47%
14:00 +29°C° 0 mm 7 mps 752 mmHg 45%
15:00 +32°C° 0 mm 6 mps 751 mmHg 42%
16:00 +30°C° 0 mm 5 mps 751 mmHg 48%
17:00 +29°C° 0 mm 4 mps 751 mmHg 53%
18:00 +29°C° 0 mm 3 mps 751 mmHg 59%
19:00 +27°C° 0 mm 3 mps 752 mmHg 65%
20:00 +25°C° 0 mm 3 mps 752 mmHg 71%
21:00 +23°C° 0 mm 2 mps 752 mmHg 77%
22:00 +22°C° 0 mm 3 mps 752 mmHg 80%
23:00 +21°C° 0 mm 3 mps 753 mmHg 83%
Show more